Time,TemperatureF,DewpointF,PressureIn,WindDirection,WindDirectionDegrees,WindSpeedMPH,WindSpeedGustMPH,Humidity,HourlyPrecipIn,Conditions,Clouds,dailyrainin,SoftwareType,DateUTC
2013-01-16 00:02:00,6.0,2.0,-100.00,SSE,159,0.0,1.0,84,-99.99,,,-99.99,,2013-01-16 07:02:00,
2013-01-16 00:11:00,6.0,2.0,-100.00,SSE,159,0.0,1.0,84,-99.99,,,-99.99,,2013-01-16 07:11:00,
2013-01-16 00:52:00,6.0,3.0,-100.00,West,262,4.0,7.0,86,-99.99,,,-99.99,,2013-01-16 07:52:00,
2013-01-16 01:02:00,6.0,3.0,-100.00,West,262,4.0,7.0,86,-99.99,,,-99.99,,2013-01-16 08:02:00,
2013-01-16 01:12:00,6.0,3.0,-100.00,West,262,4.0,7.0,86,-99.99,,,-99.99,,2013-01-16 08:12:00,
2013-01-16 01:52:00,5.0,1.0,-100.00,SE,136,4.0,5.0,83,-99.99,,,-99.99,,2013-01-16 08:52:00,
2013-01-16 02:02:00,5.0,1.0,-100.00,SE,136,4.0,5.0,83,-99.99,,,-99.99,,2013-01-16 09:02:00,
2013-01-16 02:11:00,5.0,1.0,-100.00,SE,136,4.0,5.0,83,-99.99,,,-99.99,,2013-01-16 09:11:00,
2013-01-16 02:53:00,5.0,1.0,-100.00,ESE,118,4.0,6.0,85,-99.99,,,-99.99,,2013-01-16 09:53:00,
2013-01-16 03:02:00,5.0,1.0,-100.00,ESE,118,4.0,6.0,85,-99.99,,,-99.99,,2013-01-16 10:02:00,
2013-01-16 03:12:00,5.0,1.0,-100.00,ESE,118,4.0,6.0,85,-99.99,,,-99.99,,2013-01-16 10:12:00,
2013-01-16 03:53:00,4.0,0.0,-100.00,SSE,154,2.0,3.0,84,-99.99,,,-99.99,,2013-01-16 10:53:00,
2013-01-16 04:02:00,4.0,0.0,-100.00,SSE,154,2.0,3.0,84,-99.99,,,-99.99,,2013-01-16 11:02:00,
2013-01-16 04:11:00,4.0,0.0,-100.00,SSE,154,2.0,3.0,84,-99.99,,,-99.99,,2013-01-16 11:11:00,
2013-01-16 04:53:00,-1.0,-6.0,-100.00,SE,125,3.0,3.0,81,-99.99,,,-99.99,,2013-01-16 11:53:00,
2013-01-16 05:53:00,-6.0,-10.0,-100.00,SSE,152,0.0,0.0,80,-99.99,,,-99.99,,2013-01-16 12:53:00,
2013-01-16 06:53:00,-6.0,-10.0,-100.00,ESE,109,3.0,4.0,79,-99.99,,,-99.99,,2013-01-16 13:53:00,
2013-01-16 07:53:00,-6.0,-11.0,-100.00,SW,221,2.0,3.0,80,-99.99,,,-99.99,,2013-01-16 14:53:00,
2013-01-16 09:53:00,3.0,-1.0,-100.00,SW,232,0.0,1.0,83,-99.99,,,-99.99,,2013-01-16 16:53:00,
2013-01-16 10:02:00,3.0,-1.0,-100.00,SW,232,0.0,1.0,83,-99.99,,,-99.99,,2013-01-16 17:02:00,
2013-01-16 10:12:00,3.0,-1.0,-100.00,SW,232,0.0,1.0,83,-99.99,,,-99.99,,2013-01-16 17:12:00,
2013-01-16 10:53:00,10.0,2.0,-100.00,ESE,112,0.0,0.0,71,-99.99,,,-99.99,,2013-01-16 17:53:00,
2013-01-16 11:02:00,10.0,2.0,-100.00,ESE,112,0.0,0.0,71,-99.99,,,-99.99,,2013-01-16 18:02:00,
2013-01-16 11:12:00,10.0,2.0,-100.00,ESE,112,0.0,0.0,71,-99.99,,,-99.99,,2013-01-16 18:12:00,
2013-01-16 11:53:00,14.0,4.0,-100.00,North,354,1.0,2.0,61,-99.99,,,-99.99,,2013-01-16 18:53:00,
2013-01-16 12:02:00,14.0,4.0,-100.00,North,354,1.0,2.0,61,-99.99,,,-99.99,,2013-01-16 19:02:00,
2013-01-16 12:12:00,14.0,4.0,-100.00,North,354,1.0,2.0,61,-99.99,,,-99.99,,2013-01-16 19:12:00,
2013-01-16 12:53:00,17.0,7.0,-100.00,East,97,0.0,2.0,64,-99.99,,,-99.99,,2013-01-16 19:53:00,
2013-01-16 13:03:00,17.0,7.0,-100.00,East,97,0.0,2.0,64,-99.99,,,-99.99,,2013-01-16 20:03:00,
2013-01-16 13:12:00,17.0,7.0,-100.00,East,97,0.0,2.0,64,-99.99,,,-99.99,,2013-01-16 20:12:00,
2013-01-16 13:53:00,20.0,11.0,-100.00,West,281,5.0,7.0,66,-99.99,,,-99.99,,2013-01-16 20:53:00,
2013-01-16 14:12:00,20.0,11.0,-100.00,West,281,5.0,7.0,66,-99.99,,,-99.99,,2013-01-16 21:12:00,
2013-01-16 14:53:00,22.0,12.0,-100.00,West,276,0.0,1.0,63,-99.99,,,-99.99,,2013-01-16 21:53:00,
2013-01-16 15:12:00,22.0,12.0,-100.00,West,276,0.0,1.0,63,-99.99,,,-99.99,,2013-01-16 22:12:00,
2013-01-16 15:53:00,23.0,11.0,-100.00,SSE,166,1.0,3.0,60,-99.99,,,-99.99,,2013-01-16 22:53:00,
2013-01-16 16:53:00,20.0,10.0,-100.00,WNW,293,2.0,4.0,65,-99.99,,,-99.99,,2013-01-16 23:53:00,
2013-01-16 17:02:00,20.0,10.0,-100.00,WNW,293,2.0,4.0,65,-99.99,,,-99.99,,2013-01-17 00:02:00,
2013-01-16 17:12:00,20.0,10.0,-100.00,WNW,293,2.0,4.0,65,-99.99,,,-99.99,,2013-01-17 00:12:00,
2013-01-16 17:52:00,10.0,6.0,-100.00,ESE,118,2.0,3.0,82,-99.99,,,-99.99,,2013-01-17 00:52:00,
2013-01-16 18:02:00,10.0,6.0,-100.00,ESE,118,2.0,3.0,82,-99.99,,,-99.99,,2013-01-17 01:02:00,
2013-01-16 18:12:00,10.0,6.0,-100.00,ESE,118,2.0,3.0,82,-99.99,,,-99.99,,2013-01-17 01:12:00,
2013-01-16 18:52:00,2.0,-2.0,-100.00,SW,230,0.0,1.0,83,-99.99,,,-99.99,,2013-01-17 01:52:00,
2013-01-16 19:02:00,2.0,-2.0,-100.00,SW,230,0.0,1.0,83,-99.99,,,-99.99,,2013-01-17 02:02:00,
2013-01-16 19:12:00,2.0,-2.0,-100.00,SW,230,0.0,1.0,83,-99.99,,,-99.99,,2013-01-17 02:12:00,
2013-01-16 20:02:00,1.0,-3.0,-100.00,East,84,0.0,0.0,83,-99.99,,,-99.99,,2013-01-17 03:02:00,
2013-01-16 20:12:00,1.0,-3.0,-100.00,East,84,0.0,0.0,83,-99.99,,,-99.99,,2013-01-17 03:12:00,
2013-01-16 20:52:00,4.0,0.0,-100.00,ESE,106,1.0,2.0,86,-99.99,,,-99.99,,2013-01-17 03:52:00,
2013-01-16 21:02:00,4.0,0.0,-100.00,ESE,106,1.0,2.0,86,-99.99,,,-99.99,,2013-01-17 04:02:00,
2013-01-16 21:12:00,4.0,0.0,-100.00,ESE,106,1.0,2.0,86,-99.99,,,-99.99,,2013-01-17 04:12:00,
2013-01-16 22:53:00,4.0,0.0,-100.00,SW,218,1.0,2.0,84,-99.99,,,-99.99,,2013-01-17 05:53:00,
2013-01-16 23:12:00,4.0,0.0,-100.00,SW,218,1.0,2.0,84,-99.99,,,-99.99,,2013-01-17 06:12:00,
2013-01-16 23:52:00,1.0,-3.0,-100.00,SE,136,4.0,5.0,83,-99.99,,,-99.99,,2013-01-17 06:52:00,